Location: Newark
(35.6799°N, 139.7636°E)
Time: 19:51:05
(UTC+00:00)

Explorer 7 - Pass Details

Date: 12 December 2019
Orbit: 485 x 679 km, 50.3° (Epoch: 24 January)

Event Time Altitude Azimuth Distance (km) Brightness Sun altitude
Rises 12:03:04 0° 311° (NW) 3,019 - -54.9°
Reaches altitude 10° 12:05:29 10° 314° (NW) 2,088 - -55.4°
Maximum altitude 12:10:18 68° 38° (NE) 695 - -56.4°
Drops below altitude 10° 12:14:52 10° 121° (ESE) 1,984 - -57.3°
Sets 12:17:07 0° 124° (SE) 2,856 - -57.7°
